Showing default

IRIDIUM 133, 42955

Orbit data source: Space-Track

IRIDIUM 133, 42955 is a payload satellite owned by Iridium (US) in LEO that was launched on Mon, 09 Oct 2017 UTC via an FALCON 9 launch vehicle from the Air Force Western Test Range (AFWTR). Payload-class satellites include a variety of spacecraft equipped with specific instruments for various scientific and technological missions. These include communications satellites like Starlink; space stations such as the ISS; scientific satellites like the Hubble; Earth observation satellites from companies like Planet Labs, Umbra, and HawkEye 360; GPS; miniature CubeSats for education and research; and military/defense satellites.

Loading next visibility...
Identifier
42955, 2017-061A
Orbit
LEO
Country
Flag of USUS
Related business
Manufacturer
OATK SSG Gilbert
Mission
Operational Commercial Communications
Bus & Motor
ELITEBUS, Unknown motor
Mass
860 kg wet, 700 kg dry
Launch date (UTC)
2017-10-09 (8 years ago)
Launch vehicle
FALCON 9
Launch site
Air Force Western Test Range (AFWTR)
Object type
Payload
Rocket body
Debris
Shape & HBR
Trap Box + 2 Pan, 4.8 m
Radar Cross Section
10.154 m², Large (>1 m²)

Expand to show TLE details & history
Last TLE update: 17 hours ago

TLE from 17 hours ago
0 IRIDIUM 133
1 42955U 17061A   25340.88905862  .00000031  00000-0  40446-5 0  9997
2 42955  86.3960 105.6775 0002006  97.4417 262.7007 14.34217613427212
Epoch: 2025-12-06T21:20Z
TLE epoch observation values (Epoch: 2025-12-06T21:20:14.664Z)
Latitude
-0.00002°
Longitude
69.70607°
Altitude
780.901 km
Speed
7.463 km/s
True Right ascension
07h 02m 42s
True Declination
0° 00' 00"
Sunlit
Object was in full shadow at epoch
Visualization orbit readout
Latitude
Unknown
Longitude
Unknown
Altitude
Unknown
Speed
Unknown
Apparent Right ascension
Unknown
Apparent Declination
Unknown
Sunlit
N/A
Visualization observer readout
Local Sidereal Time
12:32:17
Azimuth
Unknown
Elevation
Unknown
Doppler factor
Unknown
Orbital elements
Apogee altitude
776.067 km
Perigee altitude
773.197 km
Semi-major axis
7,152.769 km
Eccentricity
0.0002
Inclination
86.396°
RAAN
105.6775°
Arg. of periapsis
97.4417°
True anomaly
262.6779°
Mean anomaly
262.7007°
Eccentric anomaly
262.6893°
Mean motion
3.58783 °/min
Orbital period
100.34 mins
BSTAR
0.0000040446
Loading maneuver chart data...
Computing Atmospheric mass density...
Loading historical data...
Loading historical data...
Loading historical data...
Loading historical data...
Loading historical data...
Loading historical data...
Loading historical data...

Documentation

Showing up to 5 results
|